Location: Gorrie
(43.8742°N, 81.1087°W)
Time: 16:38:07
(UTC+00:00)

Cosmos 1980 Rocket - Pass Details

Date: 09 December 2025
Orbit: 830 x 847 km, 71.0° (Epoch: 22 January)

Event Time Altitude Azimuth Distance (km) Brightness Sun altitude
Rises 00:01:12 0° 199° (SSW) 3,387 5.7 -23.4°
Reaches altitude 10° 00:03:38 10° 197° (SSW) 2,454 4.9 -23.8°
Maximum altitude 00:09:15 77° 112° (ESE) 864 2.0 -24.8°
Enters shadow 00:10:10 62° 48° (NE) 940 2.1 -25.0°
